Theta_e
318 318 317 316 316 316 315 315 315 314 314 314 313 312 313 314 314 314 313 313 314 314 314 313 311 313 317 323 317 318 319 319 319 319 328 331 340 339 335 332 329 329 327 325 324 324 326
319 319 318 317 316 317 316 316 316 315 313 314 313 313 314 313 313 313 313 314 315 316 315 312 312 314 319 318 319 324 319 320 321 327 334 333 339 336 330 329 326 326 323 322 323 324 325
319 319 318 318 317 317 317 318 316 316 314 314 314 313 314 314 313 313 313 315 318 318 313 312 314 317 323 320 322 326 324 329 330 325 331 331 332 324 322 322 323 321 320 320 322 322 323
319 318 317 317 318 318 318 318 317 316 314 313 314 314 314 313 313 313 315 318 320 314 313 314 315 323 317 321 323 326 329 332 331 328 327 328 330 321 320 321 320 321 319 319 320 322 322
319 317 316 317 318 318 319 318 318 316 314 312 314 314 314 313 313 314 319 320 316 314 314 315 319 324 325 327 322 322 322 327 322 329 329 328 326 320 320 322 319 318 320 320 321 323 323
317 316 316 317 318 318 319 319 319 316 315 311 312 314 314 313 313 317 320 321 318 317 320 322 323 323 324 327 322 322 322 321 319 320 320 321 318 318 317 319 322 322 321 320 321 324 324
317 316 317 317 318 319 320 320 320 318 315 311 312 314 314 313 314 320 320 320 311 315 318 324 324 325 324 323 323 322 322 322 321 320 319 319 318 317 318 320 324 323 322 322 323 324 323
318 318 318 319 319 320 321 321 321 320 316 312 312 314 314 313 317 320 320 315 317 317 315 316 317 318 319 321 321 321 323 320 320 319 319 318 318 319 320 322 324 325 324 322 321 322 321
319 319 319 320 320 320 321 322 322 321 317 312 311 313 314 313 320 320 320 318 319 318 313 317 320 320 319 319 320 321 319 320 321 320 320 318 320 323 323 322 321 320 320 320 320 320 319
318 318 319 319 320 320 321 322 323 322 317 314 312 312 314 313 317 317 320 318 319 318 317 323 323 321 321 320 320 322 321 322 321 321 320 320 321 323 323 324 322 321 322 322 321 319 319
318 318 318 318 319 320 321 321 323 322 320 316 314 313 314 314 316 316 319 319 319 317 329 325 321 322 320 319 321 322 323 322 321 321 322 321 323 323 324 325 324 322 322 322 322 321 317
322 321 320 319 318 319 320 321 323 323 322 318 316 315 315 315 314 318 318 319 318 322 329 323 320 320 320 319 320 322 322 321 321 322 322 322 324 324 324 323 324 325 322 321 320 317 321
321 321 321 322 321 319 320 320 322 324 323 319 317 318 317 316 313 316 319 316 322 325 325 322 322 319 320 321 321 321 321 321 319 321 321 323 326 323 323 322 321 322 320 322 323 323 324
319 320 320 321 322 322 321 320 321 323 323 320 319 319 318 318 319 317 318 319 327 329 322 321 321 320 321 321 323 322 321 319 323 322 322 324 325 323 322 323 323 322 322 322 326 325 326
314 316 318 320 321 322 322 321 321 322 323 316 319 319 321 321 321 319 314 320 325 323 322 321 320 322 323 322 322 322 322 321 323 322 323 322 324 322 324 323 322 322 320 321 324 326 327
310 310 315 317 319 321 322 322 320 322 323 316 315 319 321 322 322 319 314 320 321 322 322 321 321 322 323 322 322 322 323 322 323 322 320 322 322 322 325 322 321 320 320 326 324 329 332
303 306 310 313 317 319 321 322 321 321 321 314 318 316 322 322 322 311 315 317 321 322 322 322 321 321 322 323 322 323 324 323 323 323 321 322 321 322 322 321 321 321 320 326 323 324 328
307 306 307 311 314 317 319 320 320 320 316 312 316 318 323 322 316 312 317 321 322 322 319 320 322 323 323 324 324 325 326 325 324 323 325 322 318 321 322 321 323 320 327 324 326 327 324
306 307 306 309 310 314 317 319 318 318 306 311 312 315 323 322 316 314 315 322 322 322 320 320 321 320 320 322 324 325 325 324 324 324 324 322 319 321 322 320 322 325 324 323 322 322 328
305 305 306 305 308 310 315 317 318 317 309 310 313 320 317 314 314 320 319 321 322 323 320 319 320 320 320 322 321 323 324 326 324 324 337 323 319 322 322 322 322 323 324 326 325 322 325
304 305 305 306 306 309 311 315 317 317 312 309 314 321 318 319 319 318 319 320 322 322 320 319 320 321 321 322 321 322 322 323 323 331 321 318 321 322 321 322 323 324 325 332 332 334 337
304 304 305 305 306 309 311 315 317 317 312 313 313 320 317 318 317 320 319 320 323 323 321 322 320 319 317 319 319 319 317 319 321 319 319 316 318 321 321 322 324 327 335 336 337 337 341
303 303 304 304 305 307 310 312 315 316 310 314 318 316 316 318 317 318 319 321 322 320 320 320 318 317 317 319 317 316 314 313 315 317 316 317 316 318 319 321 324 331 336 336 339 337 341
302 303 303 304 304 305 308 310 313 315 313 309 313 314 316 321 319 319 321 321 320 320 321 319 319 318 317 317 315 314 315 314 314 314 312 315 316 320 321 327 336 330 332 334 337 337 338
301 302 302 303 304 304 305 309 313 315 314 307 309 313 314 319 319 321 321 320 319 317 319 319 319 318 314 316 315 315 315 316 318 317 317 314 316 326 335 335 333 337 332 337 336 336 338
301 302 302 302 303 303 305 308 311 315 314 308 306 310 311 315 318 321 321 319 317 316 317 320 318 316 315 313 315 318 317 318 319 319 327 330 327 334 336 337 338 334 335 335 335 339 335
301 301 302 302 303 303 303 306 310 314 313 307 307 313 313 317 317 319 318 317 316 316 316 316 318 317 315 314 317 317 317 316 318 318 322 330 332 335 338 336 335 334 335 335 339 335 334
301 301 301 301 302 303 303 304 308 312 314 307 308 312 311 313 314 316 317 317 315 315 318 316 316 317 318 319 318 317 317 319 327 329 331 332 332 332 331 335 336 334 337 334 330 333 333
301 301 301 301 301 302 302 303 306 311 312 308 309 312 312 312 314 317 317 317 316 315 314 313 315 316 317 318 320 320 322 322 327 328 327 333 332 331 328 328 326 329 334 332 332 332 333
Wind_Speed
20 21 22 23 24 25 27 28 30 31 31 32 31 30 29 30 30 31 28 30 21 16 18 16 11 6 2 1 9 11 6 4 7 8 6 4 1 2 4 4 8 3 6 8 10 10 11
20 22 22 23 24 26 27 29 30 31 33 33 32 32 33 34 34 33 32 27 18 21 19 11 4 2 1 3 4 7 11 7 5 6 4 5 6 3 5 4 3 5 8 10 11 14 11
20 22 22 23 24 26 28 30 31 32 33 34 35 34 36 37 37 34 32 23 26 18 8 2 2 2 0 11 1 10 11 5 6 11 4 11 9 2 4 8 6 7 8 12 16 8 9
20 21 22 23 24 26 28 30 32 33 34 35 36 36 38 39 37 33 27 28 19 4 3 3 1 3 6 8 5 15 14 12 8 9 16 16 15 4 3 3 8 7 4 5 10 12 10
20 21 22 23 24 27 29 31 33 34 35 37 38 38 39 40 36 28 26 25 3 5 4 3 2 2 8 11 3 11 13 14 10 15 17 17 6 3 6 3 6 4 5 6 11 11 8
19 21 22 23 25 27 29 31 33 35 36 37 39 40 40 41 35 24 27 7 3 4 4 1 3 3 6 2 4 3 9 16 6 3 3 5 4 2 4 5 5 6 4 6 9 15 7
19 20 22 23 25 27 29 31 34 36 36 38 39 40 40 39 28 20 25 3 5 4 1 5 3 4 12 10 4 4 3 3 1 3 1 3 2 8 13 11 14 6 7 14 17 16 3
19 20 22 23 25 27 29 32 34 35 36 37 39 40 40 38 17 14 16 5 2 6 8 9 16 10 22 15 3 4 4 4 3 5 1 4 6 15 9 11 10 12 11 12 8 6 4
19 20 22 24 25 27 29 31 34 35 36 38 39 39 39 38 11 13 6 14 15 14 2 8 6 5 6 8 5 5 9 5 5 4 5 6 12 7 9 13 12 8 6 5 6 4 6
19 20 22 23 25 27 29 31 33 35 37 38 39 40 40 37 4 18 5 18 19 15 4 6 2 6 4 4 4 5 14 4 2 3 5 5 5 5 10 7 2 5 5 5 8 7 7
19 20 22 23 25 27 29 31 33 36 37 38 39 41 41 21 13 7 13 21 23 2 3 3 3 3 1 6 2 4 6 3 6 6 2 8 7 13 12 6 7 7 5 5 3 3 4
19 20 21 23 24 26 28 30 32 35 37 38 40 41 40 9 12 7 18 24 5 4 1 2 3 2 2 3 4 1 2 3 1 2 2 6 4 4 3 6 4 5 5 7 6 4 4
18 19 20 22 23 25 26 29 32 34 36 38 42 39 26 11 5 13 18 5 4 4 7 6 2 4 3 4 3 6 5 3 3 2 5 7 1 5 12 9 10 12 8 6 5 5 6
18 20 20 21 22 24 26 28 31 34 36 38 41 36 20 13 9 12 9 5 5 4 4 2 6 7 1 2 3 3 2 4 5 3 3 3 7 8 8 3 4 7 4 4 5 3 7
17 20 20 21 21 22 25 27 30 34 36 41 38 29 9 2 3 2 5 4 4 3 3 5 8 5 6 9 5 7 5 5 5 3 5 3 4 6 7 8 2 9 6 4 2 2 3
18 20 18 20 22 22 23 26 29 33 35 35 29 16 11 4 7 3 5 3 4 3 2 5 5 4 6 7 8 6 4 3 4 4 3 2 3 3 6 7 3 6 5 5 4 3 4
17 18 18 19 21 21 22 24 27 31 35 25 10 4 5 8 9 5 2 5 5 6 3 3 0 3 4 1 3 6 4 5 3 2 7 2 3 6 5 3 7 8 6 3 2 4 4
17 17 15 15 19 21 21 22 24 28 33 18 6 3 3 10 3 1 1 4 7 9 4 2 1 2 4 5 4 3 3 2 5 2 4 4 5 2 7 9 3 6 3 4 3 8 4
18 18 18 14 15 19 20 20 21 23 26 12 3 4 9 5 1 3 7 6 4 10 7 3 2 3 2 4 4 5 6 8 8 3 4 1 2 4 9 7 5 1 6 4 3 2 5
18 20 20 16 14 16 17 19 18 18 19 12 3 4 4 4 2 3 6 5 8 6 5 7 5 2 4 5 1 4 5 4 7 5 8 6 2 5 5 7 4 8 17 19 9 1 5
18 18 18 19 15 13 16 16 16 16 15 9 1 4 3 4 5 6 2 3 5 7 2 3 6 4 4 3 6 6 6 7 6 5 5 4 3 3 5 7 7 12 17 7 3 4 3
18 19 19 19 18 14 13 13 14 16 13 2 1 2 5 3 4 6 4 3 4 7 4 14 1 5 6 5 1 3 3 2 6 6 2 2 3 2 5 8 12 15 4 2 2 2 5
18 18 18 18 18 16 11 11 13 13 8 2 4 6 3 4 4 3 2 6 13 8 8 3 4 4 6 4 4 5 4 6 8 5 4 1 2 1 5 8 9 6 2 3 3 3 4
17 18 18 18 18 17 11 9 11 11 6 3 3 3 2 4 1 2 9 11 12 10 4 8 3 3 7 1 1 2 5 6 9 12 10 6 4 4 8 3 5 4 2 1 4 3 3
18 17 17 17 17 17 14 8 10 11 8 6 4 2 1 2 2 7 7 5 13 8 5 3 7 5 4 4 4 6 6 7 7 8 9 11 4 3 3 3 2 4 1 0 3 4 3
18 18 17 17 16 17 16 10 9 11 9 9 11 9 2 2 5 3 5 4 3 5 8 4 9 8 6 3 3 2 3 4 6 10 8 4 6 4 2 1 4 5 4 7 3 4 3
18 17 17 17 16 16 17 13 11 10 10 10 7 8 3 2 5 1 2 3 3 3 3 4 8 7 4 2 2 3 5 4 5 7 6 3 2 3 2 6 5 5 4 6 2 4 7
18 17 17 17 16 16 16 14 11 11 10 10 8 7 5 2 6 5 5 4 3 1 2 4 5 4 4 3 2 3 2 4 2 3 6 2 2 3 2 1 5 2 3 2 5 2 4
18 18 17 17 16 16 16 15 11 12 11 10 7 2 8 5 6 20 25 27 22 23 2 3 5 2 4 3 2 1 2 3 2 4 4 2 1 5 7 5 7 4 3 6 2 4 5
Wind_Direction
9 8 6 6 6 6 5 3 3 3 0 358 356 355 352 349 346 341 335 333 333 328 320 310 307 311 351 44 251 255 253 150 167 180 201 186 242 208 245 268 331 290 287 301 304 310 312
5 3 3 3 4 5 4 1 0 360 358 357 355 353 350 348 344 341 335 335 332 326 312 300 292 307 119 261 263 241 194 195 189 188 209 200 226 242 256 274 314 275 310 316 311 307 306
0 360 1 3 2 2 1 359 358 357 357 356 354 352 349 347 345 340 335 336 330 322 318 306 169 132 184 244 340 209 196 213 227 205 204 248 254 23 322 327 325 327 355 321 292 285 296
356 358 1 360 359 359 358 357 356 356 356 354 353 351 349 347 344 338 335 337 330 359 46 118 139 130 245 274 282 219 230 248 245 223 232 256 264 257 203 281 357 352 12 329 290 297 270
354 358 358 358 357 357 356 356 356 356 355 354 353 351 349 347 345 339 339 339 63 63 86 122 110 162 273 322 262 265 211 216 232 237 234 259 257 227 341 42 355 350 251 255 302 300 285
355 355 356 356 356 355 355 355 355 354 353 353 352 350 348 347 346 343 347 35 58 63 75 49 273 313 268 286 198 216 217 234 235 269 350 198 43 341 5 79 247 244 236 273 278 290 306
354 355 356 355 354 354 355 355 354 352 352 351 351 349 348 347 348 352 1 37 17 357 16 218 218 275 284 302 287 255 219 226 87 29 234 302 77 252 244 207 232 236 257 265 279 281 11
352 353 354 354 353 353 353 352 351 350 349 349 349 349 347 346 346 8 11 64 173 268 305 255 250 250 259 264 296 274 206 150 135 228 65 354 261 254 254 249 231 246 253 267 276 263 6
349 350 350 351 352 351 350 350 349 347 347 347 347 348 347 346 351 3 39 12 354 350 351 297 231 217 235 150 243 293 152 160 187 219 227 188 246 287 253 265 252 246 220 235 239 305 322
344 345 346 347 348 347 347 346 345 345 344 345 346 346 346 344 14 340 312 349 347 343 47 283 224 265 185 131 294 234 191 160 343 270 288 233 265 321 331 308 299 315 263 308 331 12 301
340 341 342 343 343 344 344 343 343 343 343 342 342 342 340 339 308 312 321 336 332 35 56 182 222 195 140 147 245 252 176 80 206 239 74 255 324 319 313 307 336 259 348 332 276 297 34
338 339 339 339 339 340 341 341 340 340 341 340 338 340 334 327 301 299 328 328 340 44 334 219 148 219 40 259 259 54 200 39 256 302 261 239 312 56 298 323 352 292 18 21 31 78 18
332 333 334 335 336 337 338 339 339 339 339 338 334 338 326 305 266 321 327 7 40 93 330 348 16 5 273 284 292 184 201 166 186 89 309 337 294 332 25 359 350 12 32 340 350 0 245
335 332 331 332 333 335 336 337 338 338 338 338 333 336 324 288 297 303 342 53 69 277 347 350 341 332 299 264 282 25 0 312 52 109 78 76 334 13 359 34 262 281 133 170 289 243 281
324 332 332 333 332 334 336 336 337 337 338 340 335 337 326 261 297 296 61 62 202 330 1 4 345 7 346 355 13 29 349 14 34 36 115 56 288 326 23 338 46 322 359 216 156 356 30
307 314 330 336 334 334 335 335 336 336 339 344 335 329 301 152 224 60 69 245 276 335 63 36 48 50 6 328 20 358 14 356 89 45 74 350 326 319 323 2 12 118 262 3 2 346 311
319 309 322 331 335 333 335 337 337 339 341 348 340 359 286 191 184 52 135 245 289 277 116 78 206 305 280 276 4 340 348 360 55 20 93 121 104 290 21 1 307 327 344 6 126 152 204
337 336 319 318 331 335 335 338 339 342 346 355 9 341 321 6 38 66 216 226 304 274 27 355 240 276 343 341 335 5 321 231 331 202 165 209 148 235 249 284 223 179 331 87 118 292 235
339 337 334 313 312 328 335 337 342 349 358 346 354 267 319 224 232 327 307 309 305 7 316 93 347 77 108 352 3 342 338 307 341 112 150 224 348 354 347 350 344 43 326 279 187 116 228
333 335 335 330 308 314 330 332 336 344 354 352 15 347 320 35 102 44 1 324 336 335 329 21 304 352 355 341 229 270 311 355 28 62 70 81 96 149 197 222 228 305 313 310 297 186 292
325 329 333 335 323 319 327 328 332 335 347 343 100 261 227 312 332 335 341 274 318 328 314 18 322 335 309 323 2 12 355 340 343 66 37 93 205 253 256 266 285 289 289 324 51 261 155
319 322 326 331 332 327 331 326 329 330 340 294 236 28 340 277 306 3 13 307 331 314 271 294 104 349 33 97 133 310 20 343 257 323 98 17 246 284 276 289 286 291 351 56 329 326 269
312 315 317 323 327 324 317 327 312 321 338 325 327 342 106 283 337 34 274 338 317 329 307 158 142 111 3 192 170 212 199 232 226 229 277 217 216 86 266 275 295 293 241 303 203 209 225
306 308 311 314 320 324 300 302 299 305 296 284 312 326 56 276 8 260 323 325 339 322 271 313 355 110 233 4 15 6 344 277 260 258 195 214 162 148 272 291 234 236 348 301 301 187 265
306 303 304 307 312 318 307 281 289 292 279 254 253 310 103 265 301 305 340 322 324 320 327 327 335 303 274 69 45 0 332 334 284 252 250 192 147 233 188 198 264 286 254 295 117 282 303
293 300 296 301 302 310 313 272 274 283 272 262 264 240 270 135 249 48 339 307 303 326 337 329 337 323 50 84 85 174 243 266 294 331 55 55 113 138 110 28 238 235 236 175 144 263 259
285 291 293 294 295 301 309 283 261 275 261 253 254 186 255 229 270 66 217 254 274 323 263 330 325 336 50 95 134 204 248 222 289 290 271 287 349 141 157 223 271 233 226 124 149 237 211
279 284 289 290 291 292 302 293 253 271 259 249 261 204 230 241 279 251 263 256 328 243 191 278 9 345 9 41 135 264 261 260 14 258 334 235 158 193 137 255 294 355 310 250 220 76 206
270 278 282 284 286 288 296 301 245 262 248 237 266 150 328 202 251 285 284 269 246 238 196 300 189 215 230 62 6 326 321 336 45 303 328 34 110 297 177 212 245 291 336 305 179 156 205